This demonstration page uses our WeatherBlox Daily Observations layout. Learn more.

Left ArrowRight Arrow

39.01783, -85.05884

Hourly Observations for May 25, 2019

Temp ( °F °C ) Dew Point ( °F °C ) Humidity (%) Winds ( mph kmh ) Pressure ( in mb ) Visibility ( mi km ) Precip ( " mm )
12:52 am 00:52 Clear 70 21.1 64 17.8 82 82 S 5 7 30.02 1017 10 16 0.00 0.00
1:52 am 01:52 Clear 72 22.2 63 17.2 73 73 Calm 30.03 1017 10 16 0.00 0.00
2:52 am 02:52 Clear 67 19.4 63 17.2 87 87 S 3 6 30.03 1017 10 16 0.00 0.00
3:52 am 03:52 Clear 68 20 63 17.2 84 84 S 6 9 30.01 1016 10 16 0.00 0.00
4:52 am 04:52 Mostly Clear 68 20 62 16.7 81 81 SSW 5 7 30.01 1016 10 16 0.00 0.00
5:52 am 05:52 Partly Cloudy 67 19.4 62 16.7 84 84 SSW 5 7 30.01 1016 10 16 0.00 0.00
6:52 am 06:52 Mostly Cloudy 67 19.4 62 16.7 84 84 S 3 6 30.02 1017 10 16 0.00 0.00
7:52 am 07:52 Cloudy 70 21.1 63 17.2 79 79 SSW 6 9 30.04 1017 10 16 0.00 0.00
8:52 am 08:52 Mostly Cloudy 73 22.8 65 18.3 76 76 SSW 6 9 30.05 1018 10 16 0.00 0.00
9:52 am 09:52 Mostly Cloudy 76 24.4 66 18.9 72 72 SSW 12 19 30.06 1018 10 16 0.00 0.00
10:52 am 10:52 Mostly Cloudy 81 27.2 67 19.4 62 62 SW 12 19 30.04 1017 10 16 0.00 0.00
11:52 am 11:52 Mostly Cloudy 84 28.9 68 20 59 59 WSW 10 17 30.03 1017 10 16 0.00 0.00
12:52 pm 12:52 Partly Cloudy 85 29.4 66 18.9 53 53 W 17 28 30.02 1017 10 16 0.00 0.00
1:52 pm 13:52 Mostly Cloudy 85 29.4 63 17.2 48 48 SW 13 20 30.01 1016 10 16 0.00 0.00
2:52 pm 14:52 Mostly Cloudy 85 29.4 63 17.2 48 48 SW 10 17 30.00 1016 10 16 0.00 0.00
3:52 pm 15:52 Mostly Cloudy 86 30 61 16.1 43 43 SW 14 22 29.99 1016 10 16 0.00 0.00
4:52 pm 16:52 Mostly Cloudy 86 30 61 16.1 43 43 SW 16 26 30.00 1016 10 16 0.00 0.00
5:52 pm 17:52 Mostly Cloudy with Light Rain 77 25 66 18.9 69 69 NNW 14 22 30.03 1017 7 11 0.00 0.03
6:52 pm 18:52 Mostly Cloudy 78 25.6 69 20.6 74 74 WSW 3 6 30.03 1017 10 16 0.03 0.76
7:52 pm 19:52 Mostly Cloudy 77 25 70 21.1 79 79 Calm 30.02 1017 10 16 0.00 0.00
8:52 pm 20:52 Mostly Cloudy 74 23.3 70 21.1 88 88 S 5 7 30.02 1017 10 16 0.00 0.00
9:52 pm 21:52 Mostly Cloudy 74 23.3 65 18.3 74 74 S 6 9 30.01 1016 10 16 0.00 0.00
10:52 pm 22:52 Mostly Cloudy 73 22.8 65 18.3 76 76 SSW 7 11 30.02 1017 10 16 0.00 0.00
11:52 pm 23:52 Partly Cloudy 73 22.8 65 18.3 76 76 S 7 11 30.02 1017 10 16 0.00 0.00

Powered by AerisWeather